La Pocatiere, Quebec

7:56 PM EDT on May 27, 2017 (GMT -0400)
La Pocatiere

Weather History for CWST - October, 2013

Change the Weather History Date:

Thursday, October 17, 2013

  Actual Average Record
Temperature  
Mean Temperature 57 °F -  
Max Temperature 62 °F - - ()
Min Temperature 52 °F - - ()
Degree Days  
Heating Degree Days 8    
Growing Degree Days 7 (Base 50)    
Moisture  
Dew Point 52 °F    
Average Humidity 86    
Maximum Humidity 99    
Minimum Humidity 69    
Precipitation  
Precipitation 0.08 in - - ()
Sea Level Pressure  
Sea Level Pressure 29.70 in    
Wind  
Wind Speed 11 mph ()    
Max Wind Speed 21 mph    
Max Gust Speed 30 mph    
T = Trace of Precipitation, MM = Missing Value Source: Averaged Metar Reports

Daily Weather History Graph

Daily Weather History Graph

Search for Another Location

Airport or City:

Trip Planner

Search our weather history database for the weather conditions in past years. The results will help you decide how hot, cold, wet, or windy it might be!

Date:

Astronomy

Oct. 17, 2013 Rise Set
Actual Time 7:01 AM EDT 5:48 PM EDT
Civil Twilight 6:30 AM EDT 6:19 PM EDT
Nautical Twilight 5:55 AM EDT 6:54 PM EDT
Astronomical Twilight 5:19 AM EDT 7:30 PM EDT
Moon 5:03 PM EDT (10/17) 5:26 AM EDT (10/17)
Length of Visible Light 11h 48m
Length of Day
10h 46m
Waxing Gibbous, 98% of the Moon is Illuminated
Oct 17
Waxing Gibbous
Oct 18
Full
Oct 26
Last Quarter
Nov 3
New
Nov 10
First Quarter

Hourly Weather History & Observations

Time (EDT) Temp. Dew Point Humidity Pressure Visibility Wind Dir Wind Speed Gust Speed Precip Events Conditions
12:00 AM 53.2 °F 49.5 °F 87% 29.81 in - SSE 10.4 mph - N/A   Unknown
1:00 AM 53.6 °F 49.6 °F 86% 29.80 in - SSW 6.9 mph - 0.02 in   Unknown
2:00 AM 53 °F 50 °F 86% 29.77 in - SSE 10.4 mph - -  
2:00 AM 52.5 °F 50.0 °F 91% 29.77 in - SSE 10.4 mph - N/A   Unknown
3:00 AM 53.6 °F 50.2 °F 88% 29.75 in - SSE 10.4 mph - N/A   Unknown
4:00 AM 53.4 °F 50.4 °F 89% 29.74 in - SSE 11.5 mph - N/A   Unknown
5:00 AM 53.2 °F 50.5 °F 91% 29.72 in - SSE 9.2 mph - N/A   Unknown
6:00 AM 52.9 °F 50.9 °F 93% 29.70 in - SSE 10.4 mph 17.3 mph 0.02 in   Unknown
7:00 AM 52.7 °F 51.1 °F 94% 29.69 in - South 9.2 mph - 0.03 in   Unknown
8:00 AM 53 °F 51 °F 92% 29.69 in - South 10.4 mph - -  
8:00 AM 52.9 °F 51.4 °F 95% 29.69 in - South 10.4 mph 18.4 mph 0.03 in   Unknown
9:00 AM 53.6 °F 53.2 °F 99% 29.69 in - SSW 4.6 mph - N/A   Unknown
10:00 AM 57.9 °F 56.1 °F 94% 29.68 in - SW 13.8 mph - N/A   Unknown
11:00 AM 60.3 °F 56.1 °F 86% 29.68 in - SW 20.7 mph 29.9 mph N/A   Unknown
12:00 PM 61.9 °F 53.8 °F 75% 29.67 in - SW 19.6 mph 26.5 mph N/A   Unknown
1:00 PM 60.4 °F 52.0 °F 74% 29.67 in - SW 19.6 mph - N/A   Unknown
2:00 PM 60 °F 53 °F 69% 29.67 in - SW 19.6 mph - -  
2:00 PM 59.7 °F 52.5 °F 77% 29.67 in - SW 19.6 mph 26.5 mph N/A   Unknown
3:00 PM 60.6 °F 54.0 °F 79% 29.67 in - SW 17.3 mph - N/A   Unknown
4:00 PM 58.3 °F 53.1 °F 83% 29.67 in - SW 16.1 mph - N/A   Unknown
5:00 PM 57.4 °F 52.2 °F 83% 29.67 in - SW 18.4 mph 27.6 mph N/A   Unknown
6:00 PM 56.8 °F 52.0 °F 84% 29.67 in - SW 17.3 mph 25.3 mph N/A   Unknown
7:00 PM 56.7 °F 52.0 °F 84% 29.68 in - SW 16.1 mph - N/A   Unknown
8:00 PM 56 °F 52 °F 82% 29.69 in - SW 12.7 mph - -  
8:00 PM 56.1 °F 52.0 °F 86% 29.69 in - SW 12.7 mph 20.7 mph N/A   Unknown
9:00 PM 54.9 °F 51.3 °F 88% 29.68 in - SW 11.5 mph - N/A   Unknown
10:00 PM 55.2 °F 50.5 °F 84% 29.67 in - SW 12.7 mph 19.6 mph N/A   Unknown
11:00 PM 54.0 °F 49.8 °F 86% 29.67 in - SW 9.2 mph - N/A   Unknown